This demonstration page uses our WeatherBlox Daily Observations layout. Learn more.

Left ArrowRight Arrow

38.83388, -104.82136

Hourly Observations for March 22, 2021

Temp ( °F °C ) Dew Point ( °F °C ) Humidity (%) Winds ( mph kmh ) Pressure ( in mb ) Visibility ( mi km ) Precip ( " mm )
12:08 am 00:08 Cloudy with Freezing Fog 27 -3 25 -4 93 93 NNW 13 20 29.71 1006 3 5 0.00 0.00
12:33 am 00:33 Mostly Cloudy with Freezing Fog 27 -3 25 -4 93 93 NNW 12 19 29.73 1007 3 5 0.00 0.00
12:48 am 00:48 Cloudy with Mist and Fog 27 -3 25 -4 93 93 NW 15 24 29.72 1006 5 8 0.00 0.00
12:58 am 00:58 Cloudy with Mist and Fog 26 -3.1 25 -4 94 94 NNW 14 22 29.71 1006 7 11 0.00 0.00
1:08 am 01:08 Cloudy with Mist and Fog 28 -2 25 -4 86 86 NW 15 24 29.72 1006 2 3 0.00 0.00
1:38 am 01:38 Cloudy with Haze 28 -2 23 -5 80 80 NW 14 22 29.73 1007 1 2 0.00 0.00
1:58 am 01:58 Cloudy with Mist and Fog 28 -2.5 24 -4.6 86 86 NW 14 22 29.73 1007 5 8 0.00 0.00
2:43 am 02:43 Cloudy with Haze 28 -2 23 -5 80 80 NW 16 26 29.71 1006 1 2 0.00 0.00
2:58 am 02:58 Cloudy with Haze 28 -2 23 -4.9 81 81 NW 14 22 29.70 1006 2 2 0.00 0.00
3:58 am 03:58 Cloudy with Haze 28 -2.1 23 -5.1 80 80 NW 14 22 29.67 1005 7 11 0.01 0.25
4:58 am 04:58 Cloudy 29 -1.6 23 -5.2 77 77 WNW 8 13 29.68 1005 9 14 0.00 0.00
5:58 am 05:58 Cloudy with Haze 28 -2.1 24 -4.5 84 84 NW 13 20 29.65 1004 1 2 0.00 0.00
6:58 am 06:58 Cloudy 29 -1.5 23 -5.2 76 76 NW 9 15 29.66 1005 7 11 0.01 0.25
7:58 am 07:58 Cloudy with Haze 28 -2.1 24 -4.5 84 84 NNW 9 15 29.66 1005 1 2 0.00 0.00
8:28 am 08:28 Cloudy with Mist and Fog 28 -2 25 -4 86 86 NNW 8 13 29.68 1005 5 8 0.00 0.00
8:58 am 08:58 Cloudy 29 -1.8 23 -4.9 80 80 NW 10 17 29.67 1005 7 11 0.01 0.25
9:58 am 09:58 Cloudy with Mist and Fog 29 -1.7 25 -3.7 86 86 NW 6 9 29.67 1005 5 8 0.02 0.51
10:58 am 10:58 Cloudy with Mist and Fog 30 -1.2 27 -3 88 88 NNW 7 11 29.65 1004 5 8 0.04 1.02
11:58 am 11:58 Cloudy 31 -0.7 25 -4 79 79 NNE 5 7 29.63 1003 10 16 0.05 1.27
12:58 pm 12:58 Cloudy 31 -0.3 26 -3.6 79 79 NE 5 7 29.61 1003 10 16 0.02 0.51
1:08 pm 13:08 Cloudy 32 0 25 -4 75 75 NE 3 6 29.59 1002 10 16 0.00 0.00
1:58 pm 13:58 Mostly Cloudy 33 0.4 25 -3.8 74 74 Calm 29.57 1001 10 16 0.00 0.00
2:03 pm 14:03 Mostly Cloudy 32 0 25 -4 75 75 Calm 29.57 1001 10 16 0.00 0.00
2:23 pm 14:23 Mostly Cloudy 32 0 27 -3 80 80 Calm 29.56 1001 10 16 0.00 0.00
2:58 pm 14:58 Mostly Cloudy 33 0.8 26 -3.5 73 73 Calm 29.52 1000 10 16 0.00 0.00
3:03 pm 15:03 Mostly Cloudy 34 1 27 -3 75 75 ENE 5 7 29.52 1000 10 16 0.00 0.00
3:58 pm 15:58 Mostly Cloudy 33 0.3 26 -3.3 77 77 Calm 29.52 1000 10 16 0.00 0.00
4:03 pm 16:03 Mostly Cloudy 32 0 27 -3 80 80 Calm 29.52 1000 10 16 0.00 0.00
4:33 pm 16:33 Mostly Cloudy 32 0 27 -3 80 80 Calm 29.53 1000 10 16 0.00 0.00
4:58 pm 16:58 Cloudy 32 0.2 26 -3.2 78 78 Calm 29.52 1000 10 16 0.00 0.00
5:58 pm 17:58 Cloudy 32 0 27 -3 80 80 Calm 29.51 999 10 16 0.00 0.00
6:58 pm 18:58 Cloudy 31 -0.4 27 -2.9 83 83 N 5 7 29.54 1000 10 16 0.00 0.00
7:58 pm 19:58 Cloudy 30 -0.9 26 -3.4 83 83 N 9 15 29.55 1001 10 16 0.00 0.00
8:58 pm 20:58 Cloudy 30 -1.2 25 -4 82 82 NNW 8 13 29.55 1001 10 16 0.00 0.00
9:43 pm 21:43 Mostly Cloudy 30 -1 23 -5 75 75 N 10 17 29.55 1001 10 16 0.00 0.00
9:58 pm 21:58 Mostly Cloudy 29 -1.6 25 -4 84 84 NNW 9 15 29.57 1002 10 16 0.00 0.00
10:18 pm 22:18 Mostly Cloudy 28 -2 25 -4 86 86 N 9 15 29.57 1001 9 14 0.00 0.00
10:58 pm 22:58 Cloudy with Haze 29 -1.7 24 -4.3 83 83 NW 9 15 29.57 1002 4 6 0.00 0.00
11:58 pm 23:58 Cloudy 29 -1.5 24 -4.6 80 80 NNW 8 13 29.55 1001 7 11 0.00 0.00

Powered by AerisWeather